EW5939 Weather Reports


time (UTC)temp
F
wind
direction
speed
knots
gust
knots
rain 1hr
in
rain 24hr
in
rain mn
in
humidity
%
barometer
mb
20260507211546 56 0 0.0 4.3 0.00 0.00 0.00 47 1009.7
20260507210044 56 0 0.0 5.2 0.00 0.00 0.00 48 1009.7
20260507204551 57 0 0.0 2.6 0.00 0.00 0.00 46 1009.6
20260507203046 56 0 0.0 7.0 0.00 0.00 0.00 48 1009.7
20260507201549 57 0 0.0 3.5 0.00 0.00 0.00 46 1009.8
20260507200043 58 0 0.0 3.5 0.00 0.00 0.00 45 1009.9
20260507194541 56 0 0.0 4.3 0.00 0.00 0.00 49 1010.0
20260507193049 57 0 0.0 5.2 0.00 0.00 0.00 49 1010.0
20260507191545 55 0 0.0 5.2 0.00 0.00 0.00 50 1010.3
20260507190046 55 0 0.0 2.6 0.00 0.00 0.00 50 1010.4
20260507184544 55 0 0.0 0.0 0.00 0.00 0.00 50 1010.6
20260507183045 56 0 0.0 1.7 0.00 0.00 0.00 46 1010.5
20260507181540 55 0 0.0 1.7 0.00 0.00 0.00 48 1010.6
20260507180049 55 0 0.0 1.7 0.00 0.00 0.00 49 1010.7
20260507174539 55 0 0.0 1.7 0.00 0.00 0.00 50 1010.8
20260507173047 56 0 0.0 1.7 0.00 0.00 0.00 48 1010.9
20260507171556 55 0 0.0 0.0 0.00 0.00 0.00 47 1011.2
20260507170047 56 0 0.0 4.3 0.00 0.00 0.00 48 1011.3
20260507164540 55 0 0.0 0.0 0.00 0.00 0.00 46 1011.4
20260507163038 55 0 0.0 0.0 0.00 0.00 0.00 47 1011.6
20260507161545 54 0 0.0 0.0 0.00 0.00 0.00 49 1011.7
20260507160047 53 0 0.0 0.0 0.00 0.00 0.00 49 1011.7
20260507154544 53 0 0.0 0.0 0.00 0.01 0.00 52 1011.8
20260507153041 54 0 0.0 0.0 0.00 0.01 0.00 50 1012.1
20260507151540 52 0 0.0 0.0 0.00 0.01 0.00 52 1012.1
20260507150039 52 0 0.0 0.0 0.00 0.01 0.00 53 1012.4
20260507144611 53 0 0.0 0.9 0.00 0.01 0.00 53 1012.4
20260507143049 53 0 0.0 0.0 0.00 0.01 0.00 57 1012.8
20260507141553 51 0 0.0 0.0 0.00 0.01 0.00 58 1013.0
20260507140041 51 0 0.0 2.6 0.00 0.01 0.00 60 1013.2
20260507134544 50 0 0.0 0.0 0.00 0.03 0.00 61 1013.1
20260507133039 49 0 0.0 1.7 0.00 0.03 0.00 61 1013.2
20260507131545 48 0 0.0 0.0 0.00 0.03 0.00 62 1013.2
20260507130045 46 0 0.0 0.0 0.00 0.03 0.00 61 1013.0
20260507124545 45 0 0.0 0.0 0.00 0.05 0.00 57 1013.2
20260507123047 43 0 0.0 0.0 0.00 0.05 0.00 54 1013.1
20260507121540 42 0 0.0 0.0 0.00 0.05 0.00 49 1013.2
20260507120039 41 0 0.0 0.0 0.00 0.05 0.00 30 1013.3
20260507114538 40 0 0.0 0.0 0.00 0.16 0.00 100 1013.1
20260507113045 38 0 0.0 0.0 0.00 0.16 0.00 100 1012.9
20260507111548 36 0 0.0 0.0 0.00 0.16 0.00 100 1012.8
20260507110044 35 0 0.0 0.0 0.00 0.16 0.00 100 1012.6
20260507104539 35 0 0.0 0.0 0.00 0.23 0.00 100 1012.7
20260507103041 35 0 0.0 0.0 0.00 0.23 0.00 100 1012.6
20260507101546 35 0 0.0 0.0 0.00 0.23 0.00 100 1012.6
20260507100047 35 0 0.0 0.0 0.00 0.23 0.00 7 1012.5
20260507094547 36 0 0.0 0.0 0.00 0.34 0.00 15 1012.3
20260507093045 36 0 0.0 0.0 0.00 0.34 0.00 21 1012.6
20260507091541 37 0 0.0 0.0 0.00 0.34 0.00 26 1012.5
20260507090038 37 0 0.0 0.0 0.00 0.34 0.00 35 1012.8
20260507084539 38 0 0.0 0.0 0.00 0.39 0.00 39 1012.7
20260507083049 38 0 0.0 0.0 0.00 0.39 0.00 48 1012.6
20260507081543 38 0 0.0 0.0 0.00 0.39 0.00 43 1012.8
20260507080044 39 0 0.0 0.0 0.00 0.39 0.00 41 1012.7
20260507074540 39 0 0.0 0.0 0.00 0.42 0.00 43 1012.9
20260507073039 40 0 0.0 0.0 0.00 0.42 0.00 48 1012.9
20260507071551 40 0 0.0 0.0 0.00 0.42 0.00 47 1012.8
20260507070046 41 0 0.0 0.0 0.00 0.42 0.00 51 1013.0
20260507064540 42 0 0.0 0.0 0.00 0.50 0.00 57 1013.0
20260507063048 42 0 0.0 0.0 0.00 0.50 0.00 58 1013.0
20260507061543 42 0 0.0 0.0 0.00 0.50 0.00 61 1013.2
20260507060050 43 0 0.0 0.0 0.00 0.50 0.00 61 1013.2
20260507054546 43 0 0.0 0.0 0.00 0.52 0.00 61 1013.1
20260507053053 43 0 0.0 0.0 0.00 0.52 0.00 61 1013.5
20260507051545 44 0 0.0 0.0 0.00 0.52 0.00 63 1013.6
20260507050043 44 0 0.0 0.0 0.00 0.52 0.00 62 1013.6
20260507044557 44 0 0.0 0.0 0.00 0.52 0.00 62 1013.5
20260507043038 44 0 0.0 0.0 0.00 0.52 0.00 62 1013.7
20260507041545 44 0 0.0 0.0 0.00 0.52 0.00 63 1013.9
20260507040044 44 0 0.0 0.0 0.00 0.52 0.00 63 1013.6
20260507034556 44 0 0.0 0.0 0.00 0.52 0.52 63 1013.5
20260507033049 44 0 0.0 0.0 0.00 0.52 0.52 62 1013.5
20260507031539 45 0 0.0 0.9 0.00 0.52 0.52 62 1013.5
20260507030054 45 0 0.0 0.0 0.00 0.52 0.52 63 1013.5
20260507024552 45 0 0.0 0.0 0.00 0.52 0.52 62 1013.4
20260507023045 45 0 0.0 0.0 0.00 0.52 0.52 62 1013.0
20260507021551 45 0 0.0 0.0 0.00 0.52 0.52 62 1013.1
20260507020051 45 0 0.0 0.0 0.00 0.52 0.52 62 1013.0
20260507014550 46 0 0.0 0.0 0.00 0.52 0.52 60 1013.0
20260507013057 46 0 0.0 0.0 0.00 0.52 0.52 62 1013.0
20260507011546 46 0 0.0 0.0 0.00 0.52 0.52 62 1013.1
20260507010045 47 0 0.0 0.0 0.00 0.52 0.52 62 1013.2
20260507004542 47 0 0.0 0.0 0.00 0.52 0.52 61 1013.3
20260507003047 47 0 0.0 1.7 0.00 0.52 0.52 59 1013.4
20260507001542 48 0 0.0 0.0 0.00 0.52 0.52 61 1013.3
20260507000053 48 0 0.0 0.9 0.00 0.52 0.52 60 1013.2
20260506234541 48 0 0.0 2.6 0.00 0.52 0.52 59 1013.0
20260506233046 49 0 0.0 0.9 0.00 0.52 0.52 59 1012.7
20260506231545 49 0 0.0 0.0 0.00 0.52 0.52 61 1012.2
20260506230043 50 0 0.0 0.0 0.00 0.52 0.52 61 1012.0
20260506224601 50 0 0.0 0.9 0.00 0.52 0.52 61 1011.7
20260506223049 50 0 0.0 0.0 0.00 0.52 0.52 61 1011.7
20260506221547 51 0 0.0 1.7 0.00 0.52 0.52 62 1011.6
20260506220046 51 0 0.0 3.5 0.00 0.52 0.52 61 1011.4
20260506214604 51 0 0.0 4.3 0.00 0.52 0.52 59 1011.1
20260506213044 51 0 0.0 0.0 0.00 0.52 0.52 56 1011.2